EDW48A LWSK-LSZH

Flight info

Callsign EDW48A
Flight time 2h 0m
Altitude 34000
Route GOSTI DCT MAVAR DCT ALELU DCT UTOMO DCT RUDIK DCT ERKIR DCT KPT L856 NEGRA
Aircraft A320/M-SDE3FGHIRWY/LB1

Departure

Time 2026-04-30 19:19
Airport Skopje International Airport (LWSK)

Arrival

Time 2026-04-30 21:20
Airport Zürich Airport (LSZH)
Time Latitude Longitude Altitude Speed Heading
2026-04-30 18:59 41.95947 21.62643 836 ft 0 kts 76°
2026-04-30 19:09 41.95943 21.62623 793 ft 4 kts 77°
2026-04-30 19:10 41.95934 21.62551 793 ft 4 kts 86°
2026-04-30 19:10 41.95945 21.62489 791 ft 2 kts 163°
2026-04-30 19:11 41.95946 21.62488 791 ft 0 kts 165°
2026-04-30 19:13 41.95866 21.62518 790 ft 7 kts 165°
2026-04-30 19:13 41.95818 21.62535 789 ft 7 kts 165°
2026-04-30 19:14 41.95766 21.62553 787 ft 8 kts 165°
2026-04-30 19:14 41.95711 21.62573 786 ft 8 kts 165°
2026-04-30 19:14 41.95659 21.62591 786 ft 7 kts 165°
2026-04-30 19:14 41.95583 21.62618 785 ft 17 kts 165°
2026-04-30 19:15 41.95456 21.62664 783 ft 20 kts 163°
2026-04-30 19:15 41.95182 21.62750 778 ft 18 kts 185°
2026-04-30 19:15 41.95139 21.62686 778 ft 0 kts 255°
2026-04-30 19:17 41.95132 21.62509 781 ft 12 kts 317°
2026-04-30 19:17 41.95177 21.62486 781 ft 1 kts 346°
2026-04-30 19:18 41.95180 21.62485 781 ft 0 kts 346°
2026-04-30 19:18 41.95305 21.62442 781 ft 52 kts 345°
2026-04-30 19:18 41.95885 21.62240 787 ft 117 kts 345°
2026-04-30 19:19 41.96847 21.61901 843 ft 160 kts 345°
2026-04-30 19:19 41.97917 21.61541 1483 ft 159 kts 344°
2026-04-30 19:19 42.00154 21.60787 2496 ft 183 kts 349°
2026-04-30 19:20 42.01464 21.61074 2742 ft 210 kts 30°
2026-04-30 19:20 42.02388 21.62714 3064 ft 239 kts 73°
2026-04-30 19:20 42.01151 21.66826 4498 ft 266 kts 147°
2026-04-30 19:21 41.99366 21.67488 5300 ft 273 kts 180°
2026-04-30 19:21 41.95841 21.65635 6807 ft 282 kts 219°
2026-04-30 19:22 41.93269 21.61735 8320 ft 284 kts 246°
2026-04-30 19:22 41.91405 21.54079 10378 ft 300 kts 255°
2026-04-30 19:23 41.90305 21.49420 10973 ft 301 kts 251°
2026-04-30 19:24 41.88803 21.44990 13835 ft 256 kts 250°
2026-04-30 19:24 41.88219 21.42649 13971 ft 274 kts 257°
2026-04-30 19:24 41.87239 21.37277 14227 ft 318 kts 258°
2026-04-30 19:25 41.85294 21.27993 15006 ft 361 kts 255°
2026-04-30 19:26 41.83809 21.21768 16193 ft 365 kts 254°
2026-04-30 19:26 41.82239 21.15270 17438 ft 368 kts 255°
2026-04-30 19:26 41.81449 21.12002 18007 ft 369 kts 255°
2026-04-30 19:27 41.79853 21.05414 19123 ft 373 kts 255°
2026-04-30 19:27 41.78245 20.98789 20245 ft 375 kts 255°
2026-04-30 19:28 41.77438 20.95461 20818 ft 376 kts 255°
2026-04-30 19:28 41.76080 20.89881 21723 ft 377 kts 255°
2026-04-30 19:29 41.74444 20.83204 22736 ft 378 kts 255°
2026-04-30 19:29 41.73621 20.79848 23222 ft 379 kts 255°
2026-04-30 19:30 41.71174 20.69975 24502 ft 342 kts 255°
2026-04-30 19:30 41.69728 20.64402 25262 ft 308 kts 255°
2026-04-30 19:31 41.68876 20.58701 25497 ft 325 kts 273°
2026-04-30 19:31 41.69168 20.55669 25620 ft 334 kts 284°
2026-04-30 19:31 41.71369 20.50006 25871 ft 360 kts 309°
2026-04-30 19:32 41.73297 20.47771 26001 ft 376 kts 322°
2026-04-30 19:32 41.75546 20.45891 26126 ft 386 kts 323°
2026-04-30 19:32 41.77849 20.43980 26253 ft 393 kts 323°
2026-04-30 19:32 41.80192 20.42040 26474 ft 398 kts 323°
2026-04-30 19:33 41.82555 20.40086 26772 ft 400 kts 323°
2026-04-30 19:33 41.84928 20.38120 27077 ft 402 kts 323°
2026-04-30 19:33 41.87315 20.36142 27389 ft 404 kts 323°
2026-04-30 19:33 41.89706 20.34154 27678 ft 405 kts 323°
2026-04-30 19:34 41.92102 20.32154 27974 ft 407 kts 323°
2026-04-30 19:34 41.94509 20.30139 28253 ft 408 kts 323°
2026-04-30 19:34 41.99343 20.26085 28765 ft 411 kts 323°
2026-04-30 19:35 42.01747 20.24069 29013 ft 413 kts 323°
2026-04-30 19:35 42.04193 20.22021 29262 ft 415 kts 323°
2026-04-30 19:35 42.06680 20.19940 29501 ft 417 kts 323°
2026-04-30 19:35 42.09114 20.17901 29735 ft 418 kts 323°
2026-04-30 19:36 42.11587 20.15824 29949 ft 420 kts 323°
2026-04-30 19:36 42.14064 20.13738 30182 ft 420 kts 323°
2026-04-30 19:36 42.19014 20.09576 30664 ft 419 kts 323°
2026-04-30 19:37 42.21485 20.07491 30887 ft 419 kts 323°
2026-04-30 19:37 42.23952 20.05403 31119 ft 419 kts 323°
2026-04-30 19:37 42.26419 20.03309 31360 ft 418 kts 323°
2026-04-30 19:37 42.28879 20.01221 31621 ft 418 kts 323°
2026-04-30 19:38 42.31343 19.99129 31867 ft 418 kts 323°
2026-04-30 19:38 42.33803 19.97044 32127 ft 418 kts 323°
2026-04-30 19:38 42.36266 19.94958 32396 ft 417 kts 323°
2026-04-30 19:38 42.38725 19.92875 32673 ft 417 kts 323°
2026-04-30 19:39 42.41181 19.90790 32905 ft 417 kts 323°
2026-04-30 19:39 42.43642 19.88704 33162 ft 417 kts 324°
2026-04-30 19:39 42.46225 19.86873 33408 ft 422 kts 333°
2026-04-30 19:39 42.49036 19.85654 33626 ft 429 kts 342°
2026-04-30 19:40 42.52014 19.85123 33865 ft 436 kts 353°
2026-04-30 19:40 42.55061 19.85142 34128 ft 438 kts 355°
2026-04-30 19:40 42.58110 19.85167 34264 ft 436 kts 351°
2026-04-30 19:40 42.61089 19.84659 34291 ft 428 kts 341°
2026-04-30 19:41 42.66475 19.81643 34300 ft 415 kts 323°
2026-04-30 19:41 42.70753 19.76505 34304 ft 410 kts 310°
2026-04-30 19:42 42.74687 19.70884 34292 ft 410 kts 311°
2026-04-30 19:42 42.78642 19.65270 34296 ft 411 kts 311°
2026-04-30 19:43 42.82587 19.59643 34295 ft 411 kts 311°
2026-04-30 19:44 42.88488 19.51176 34292 ft 410 kts 311°
2026-04-30 19:44 42.92415 19.45522 34294 ft 411 kts 311°
2026-04-30 19:45 42.96324 19.39899 34295 ft 411 kts 311°
2026-04-30 19:45 43.00289 19.34188 34301 ft 412 kts 311°
2026-04-30 19:46 43.04200 19.28533 34296 ft 412 kts 311°
2026-04-30 19:46 43.08139 19.22833 34298 ft 413 kts 311°
2026-04-30 19:47 43.12077 19.17112 34303 ft 413 kts 311°
2026-04-30 19:47 43.16018 19.11383 34299 ft 413 kts 311°
2026-04-30 19:48 43.19949 19.05635 34304 ft 414 kts 311°
2026-04-30 19:48 43.23895 18.99882 34301 ft 414 kts 311°
2026-04-30 19:49 43.27843 18.94115 34301 ft 415 kts 311°
2026-04-30 19:49 43.33762 18.85443 34305 ft 415 kts 311°
2026-04-30 19:50 43.37704 18.79639 34308 ft 416 kts 311°
2026-04-30 19:50 43.41646 18.73823 34302 ft 416 kts 311°
2026-04-30 19:51 43.45590 18.67990 34307 ft 417 kts 311°
2026-04-30 19:51 43.49541 18.62138 34312 ft 417 kts 311°
2026-04-30 19:52 43.53488 18.56288 34315 ft 417 kts 311°
2026-04-30 19:52 43.57438 18.50430 34314 ft 417 kts 311°
2026-04-30 19:53 43.61385 18.44559 34314 ft 417 kts 311°
2026-04-30 19:53 43.65321 18.38670 34313 ft 417 kts 311°
2026-04-30 19:54 43.69255 18.32783 34314 ft 417 kts 312°
2026-04-30 19:54 43.73199 18.26876 34313 ft 418 kts 312°
2026-04-30 19:55 43.77143 18.20974 34317 ft 419 kts 312°
2026-04-30 19:55 43.81105 18.15009 34328 ft 421 kts 311°
2026-04-30 19:56 43.85057 18.09035 34329 ft 421 kts 311°
2026-04-30 19:56 43.89016 18.03053 34333 ft 421 kts 312°
2026-04-30 19:57 43.92956 17.97104 34333 ft 422 kts 312°
2026-04-30 19:57 43.96924 17.91097 34334 ft 422 kts 311°
2026-04-30 19:58 44.00874 17.85069 34334 ft 422 kts 311°
2026-04-30 19:58 44.04829 17.79026 34338 ft 423 kts 312°
2026-04-30 19:59 44.08793 17.72980 34341 ft 423 kts 312°
2026-04-30 20:00 44.14745 17.63869 34346 ft 424 kts 312°
2026-04-30 20:00 44.18714 17.57783 34354 ft 425 kts 312°
2026-04-30 20:01 44.24671 17.48616 34362 ft 426 kts 312°
2026-04-30 20:01 44.28639 17.42483 34357 ft 426 kts 312°
2026-04-30 20:02 44.34597 17.33257 34363 ft 427 kts 312°
2026-04-30 20:03 44.40562 17.23994 34361 ft 427 kts 312°
2026-04-30 20:03 44.44535 17.17804 34356 ft 428 kts 312°
2026-04-30 20:04 44.48506 17.11607 34354 ft 428 kts 313°
2026-04-30 20:05 44.54445 17.02330 34353 ft 429 kts 313°
2026-04-30 20:05 44.60402 16.92964 34354 ft 429 kts 313°
2026-04-30 20:06 44.64373 16.86712 34355 ft 429 kts 313°
2026-04-30 20:06 44.68345 16.80441 34353 ft 430 kts 313°
2026-04-30 20:07 44.72322 16.74157 34356 ft 430 kts 313°
2026-04-30 20:08 44.78293 16.64696 34360 ft 431 kts 313°
2026-04-30 20:08 44.82262 16.58368 34358 ft 432 kts 313°
2026-04-30 20:09 44.86238 16.52021 34356 ft 432 kts 313°
2026-04-30 20:09 44.92201 16.42501 34368 ft 432 kts 313°
2026-04-30 20:10 44.98151 16.32951 34370 ft 432 kts 313°
2026-04-30 20:11 45.04138 16.23434 34366 ft 432 kts 314°
2026-04-30 20:11 45.08178 16.17137 34368 ft 432 kts 314°
2026-04-30 20:12 45.14193 16.07693 34366 ft 432 kts 314°
2026-04-30 20:13 45.18203 16.01343 34367 ft 433 kts 314°
2026-04-30 20:13 45.22215 15.94980 34365 ft 433 kts 314°
2026-04-30 20:14 45.26230 15.88609 34371 ft 433 kts 314°
2026-04-30 20:14 45.30247 15.82228 34366 ft 434 kts 314°
2026-04-30 20:15 45.34261 15.75825 34376 ft 434 kts 314°
2026-04-30 20:15 45.38273 15.69406 34375 ft 434 kts 314°
2026-04-30 20:16 45.42284 15.62975 34374 ft 435 kts 314°
2026-04-30 20:16 45.46293 15.56534 34371 ft 435 kts 314°
2026-04-30 20:17 45.49624 15.51174 34384 ft 435 kts 314°
2026-04-30 20:17 45.53626 15.44720 34371 ft 435 kts 314°
2026-04-30 20:18 45.57629 15.38252 34380 ft 435 kts 314°
2026-04-30 20:18 45.61629 15.31761 34369 ft 435 kts 314°
2026-04-30 20:19 45.65628 15.25270 34376 ft 435 kts 315°
2026-04-30 20:19 45.69623 15.18772 34374 ft 435 kts 315°
2026-04-30 20:20 45.73616 15.12253 34368 ft 435 kts 315°
2026-04-30 20:20 45.77596 15.05731 34367 ft 435 kts 315°
2026-04-30 20:21 45.81581 14.99201 34369 ft 435 kts 315°
2026-04-30 20:21 45.85564 14.92664 34368 ft 435 kts 315°
2026-04-30 20:22 45.89544 14.86109 34367 ft 435 kts 315°
2026-04-30 20:22 45.93513 14.79550 34369 ft 435 kts 315°
2026-04-30 20:23 45.97479 14.72980 34366 ft 435 kts 315°
2026-04-30 20:23 46.01449 14.66403 34367 ft 435 kts 315°
2026-04-30 20:24 46.05412 14.59819 34369 ft 435 kts 315°
2026-04-30 20:24 46.09370 14.53213 34371 ft 436 kts 316°
2026-04-30 20:25 46.15278 14.43330 34371 ft 436 kts 316°
2026-04-30 20:26 46.21204 14.33378 34376 ft 436 kts 316°
2026-04-30 20:26 46.27127 14.23414 34366 ft 436 kts 316°
2026-04-30 20:27 46.35003 14.10091 34348 ft 436 kts 316°
2026-04-30 20:28 46.42871 13.96720 34337 ft 436 kts 316°
2026-04-30 20:30 46.52696 13.79924 34337 ft 437 kts 316°
2026-04-30 20:31 46.64473 13.59653 34334 ft 438 kts 317°
2026-04-30 20:32 46.74268 13.42672 34332 ft 438 kts 317°
2026-04-30 20:33 46.80143 13.32459 34337 ft 438 kts 317°
2026-04-30 20:34 46.85968 13.22258 34324 ft 438 kts 317°
2026-04-30 20:35 46.91809 13.12013 34323 ft 437 kts 317°
2026-04-30 20:35 46.97651 13.01736 34330 ft 438 kts 317°
2026-04-30 20:36 47.01540 12.94868 34317 ft 437 kts 317°
2026-04-30 20:37 47.07377 12.84559 34311 ft 438 kts 317°
2026-04-30 20:37 47.11261 12.77649 34307 ft 439 kts 317°
2026-04-30 20:38 47.15145 12.70720 34310 ft 439 kts 317°
2026-04-30 20:38 47.19029 12.63783 34309 ft 440 kts 317°
2026-04-30 20:39 47.24860 12.53340 34320 ft 441 kts 317°
2026-04-30 20:40 47.30681 12.42858 34319 ft 441 kts 317°
2026-04-30 20:40 47.34563 12.35852 34325 ft 441 kts 317°
2026-04-30 20:41 47.40381 12.25320 34335 ft 441 kts 318°
2026-04-30 20:41 47.44254 12.18290 34342 ft 442 kts 317°
2026-04-30 20:42 47.48122 12.11242 34356 ft 442 kts 317°
2026-04-30 20:43 47.53435 12.00052 34336 ft 459 kts 302°
2026-04-30 20:43 47.54500 11.95474 34338 ft 471 kts 291°
2026-04-30 20:43 47.55145 11.90699 34327 ft 474 kts 288°
2026-04-30 20:44 47.57008 11.76380 34330 ft 475 kts 288°
2026-04-30 20:45 47.59516 11.57168 34337 ft 475 kts 288°
2026-04-30 20:45 47.60752 11.47560 34331 ft 475 kts 288°
2026-04-30 20:46 47.63193 11.28330 34335 ft 475 kts 287°
2026-04-30 20:47 47.64966 11.14199 34333 ft 474 kts 287°
2026-04-30 20:48 47.66763 10.99769 34339 ft 474 kts 287°
2026-04-30 20:48 47.67952 10.90159 34336 ft 474 kts 287°
2026-04-30 20:49 47.69133 10.80544 34340 ft 473 kts 287°
2026-04-30 20:50 47.70880 10.66119 34143 ft 473 kts 286°
2026-04-30 20:50 47.71454 10.61306 33855 ft 473 kts 286°
2026-04-30 20:50 47.72028 10.56500 33386 ft 474 kts 286°
2026-04-30 20:50 47.72605 10.51698 32211 ft 482 kts 285°
2026-04-30 20:51 47.73202 10.46718 31324 ft 484 kts 285°
2026-04-30 20:51 47.74295 10.37347 30095 ft 477 kts 283°
2026-04-30 20:51 47.74520 10.32427 29470 ft 477 kts 273°
2026-04-30 20:52 47.74414 10.27529 28849 ft 473 kts 272°
2026-04-30 20:52 47.74300 10.22670 28235 ft 468 kts 272°
2026-04-30 20:52 47.74078 10.13109 27067 ft 459 kts 272°
2026-04-30 20:53 47.73970 10.08391 26445 ft 455 kts 272°
2026-04-30 20:53 47.73860 10.03710 25866 ft 451 kts 271°
2026-04-30 20:53 47.73747 9.99076 25290 ft 448 kts 271°
2026-04-30 20:54 47.73520 9.89928 24198 ft 439 kts 271°
2026-04-30 20:54 47.73407 9.85416 23653 ft 435 kts 271°
2026-04-30 20:54 47.73292 9.80951 23131 ft 429 kts 271°
2026-04-30 20:55 47.73057 9.72208 22200 ft 419 kts 270°
2026-04-30 20:55 47.72939 9.67908 21751 ft 415 kts 270°
2026-04-30 20:55 47.72822 9.63639 21299 ft 411 kts 270°
2026-04-30 20:56 47.72589 9.55239 20383 ft 404 kts 270°
2026-04-30 20:56 47.72470 9.51078 19907 ft 402 kts 270°
2026-04-30 20:56 47.71467 9.42943 18927 ft 403 kts 249°
2026-04-30 20:57 47.70200 9.39238 18407 ft 404 kts 237°
2026-04-30 20:57 47.68508 9.35933 17893 ft 401 kts 230°
2026-04-30 20:57 47.66741 9.32737 17376 ft 399 kts 230°
2026-04-30 20:58 47.63215 9.26611 16573 ft 391 kts 229°
2026-04-30 20:58 47.61450 9.23554 16048 ft 390 kts 229°
2026-04-30 20:58 47.59691 9.20502 15525 ft 390 kts 229°
2026-04-30 20:58 47.57933 9.17443 15015 ft 389 kts 229°
2026-04-30 20:59 47.54445 9.11360 14010 ft 386 kts 229°
2026-04-30 20:59 47.52724 9.08353 13442 ft 377 kts 229°
2026-04-30 21:00 47.49479 9.02696 12367 ft 349 kts 229°
2026-04-30 21:00 47.46266 8.97715 11471 ft 322 kts 224°
2026-04-30 21:01 47.43176 8.93205 10671 ft 310 kts 224°
2026-04-30 21:01 47.41642 8.90975 10317 ft 308 kts 224°
2026-04-30 21:01 47.38602 8.86568 9492 ft 306 kts 224°
2026-04-30 21:02 47.37074 8.84356 8951 ft 309 kts 224°
2026-04-30 21:02 47.35535 8.82127 8425 ft 311 kts 224°
2026-04-30 21:02 47.33986 8.79887 7894 ft 312 kts 224°
2026-04-30 21:02 47.32432 8.77644 7375 ft 313 kts 224°
2026-04-30 21:03 47.30891 8.75420 7075 ft 305 kts 224°
2026-04-30 21:03 47.29390 8.73254 6525 ft 308 kts 224°
2026-04-30 21:03 47.27969 8.70870 5773 ft 315 kts 240°
2026-04-30 21:03 47.27464 8.67801 5457 ft 308 kts 273°
2026-04-30 21:04 47.28089 8.64885 5253 ft 296 kts 304°
2026-04-30 21:04 47.29597 8.62947 4930 ft 288 kts 337°
2026-04-30 21:04 47.33470 8.62656 4139 ft 277 kts
2026-04-30 21:05 47.35339 8.62106 3777 ft 275 kts 339°
2026-04-30 21:05 47.37025 8.60918 3379 ft 261 kts 335°
2026-04-30 21:05 47.38598 8.59765 3011 ft 245 kts 338°
2026-04-30 21:05 47.40101 8.58723 2638 ft 232 kts 338°
2026-04-30 21:06 47.41574 8.57718 2777 ft 240 kts 338°
2026-04-30 21:06 47.43047 8.56681 3982 ft 232 kts 337°
2026-04-30 21:06 47.44515 8.55658 4805 ft 235 kts 338°
2026-04-30 21:06 47.46020 8.54649 5547 ft 240 kts 338°
2026-04-30 21:07 47.47554 8.53638 6322 ft 243 kts 338°
2026-04-30 21:07 47.49118 8.52615 6834 ft 248 kts 340°
2026-04-30 21:07 47.50202 8.52158 6882 ft 243 kts 355°
2026-04-30 21:07 47.51844 8.52358 6548 ft 235 kts 22°
2026-04-30 21:08 47.53218 8.53581 6179 ft 230 kts 47°
2026-04-30 21:08 47.54124 8.55533 5522 ft 237 kts 71°
2026-04-30 21:08 47.54376 8.57978 5103 ft 246 kts 91°
2026-04-30 21:08 47.54347 8.60555 4997 ft 251 kts 91°
2026-04-30 21:09 47.54335 8.63160 5007 ft 256 kts 90°
2026-04-30 21:09 47.54106 8.65771 5004 ft 258 kts 108°
2026-04-30 21:09 47.53224 8.68073 5010 ft 260 kts 131°
2026-04-30 21:09 47.51787 8.69695 5009 ft 263 kts 152°
2026-04-30 21:10 47.50118 8.70833 5013 ft 265 kts 154°
2026-04-30 21:10 47.48445 8.71966 5010 ft 265 kts 154°
2026-04-30 21:10 47.46773 8.73099 5012 ft 264 kts 154°
2026-04-30 21:10 47.45101 8.74235 5011 ft 265 kts 154°
2026-04-30 21:11 47.43427 8.75377 5012 ft 265 kts 154°
2026-04-30 21:11 47.41757 8.76520 5013 ft 265 kts 154°
2026-04-30 21:11 47.40087 8.77662 5010 ft 264 kts 154°
2026-04-30 21:11 47.38415 8.78804 5007 ft 265 kts 154°
2026-04-30 21:12 47.36745 8.79942 5009 ft 264 kts 154°
2026-04-30 21:12 47.35074 8.81078 5010 ft 264 kts 154°
2026-04-30 21:12 47.33400 8.82218 5008 ft 265 kts 155°
2026-04-30 21:12 47.31726 8.83361 5005 ft 266 kts 155°
2026-04-30 21:13 47.30034 8.84456 5000 ft 266 kts 162°
2026-04-30 21:13 47.28205 8.84642 5005 ft 266 kts 191°
2026-04-30 21:13 47.26546 8.83477 5003 ft 268 kts 221°
2026-04-30 21:13 47.25464 8.81263 5008 ft 270 kts 244°
2026-04-30 21:14 47.24685 8.78788 5010 ft 270 kts 245°
2026-04-30 21:14 47.23890 8.76242 5003 ft 270 kts 245°
2026-04-30 21:14 47.23188 8.73683 5000 ft 270 kts 258°
2026-04-30 21:14 47.23340 8.71014 5004 ft 257 kts 295°
2026-04-30 21:15 47.24438 8.69169 5004 ft 239 kts 333°
2026-04-30 21:15 47.25971 8.68297 5006 ft 237 kts 340°
2026-04-30 21:15 47.27493 8.67364 5004 ft 237 kts 336°
2026-04-30 21:15 47.28992 8.66345 5009 ft 237 kts 335°
2026-04-30 21:16 47.30475 8.65326 4863 ft 233 kts 336°
2026-04-30 21:16 47.31938 8.64324 4553 ft 231 kts 336°
2026-04-30 21:16 47.33367 8.63346 4214 ft 218 kts 337°
2026-04-30 21:16 47.34680 8.62445 3939 ft 199 kts 337°
2026-04-30 21:17 47.35898 8.61611 3635 ft 187 kts 338°
2026-04-30 21:17 47.37036 8.60830 3372 ft 175 kts 339°
2026-04-30 21:17 47.38097 8.60105 3176 ft 159 kts 339°
2026-04-30 21:17 47.39068 8.59437 2939 ft 151 kts 340°
2026-04-30 21:18 47.40009 8.58781 2602 ft 148 kts 339°
2026-04-30 21:18 47.40937 8.58157 2329 ft 144 kts 338°
2026-04-30 21:18 47.41849 8.57522 2090 ft 144 kts 338°
2026-04-30 21:18 47.42756 8.56901 1880 ft 143 kts 339°
2026-04-30 21:19 47.43651 8.56286 1682 ft 140 kts 339°
2026-04-30 21:19 47.44551 8.55669 1516 ft 142 kts 338°
2026-04-30 21:19 47.45431 8.55069 1408 ft 131 kts 339°
2026-04-30 21:19 47.46139 8.54584 1403 ft 89 kts 336°
2026-04-30 21:20 47.46419 8.54426 1399 ft 19 kts 32°
2026-04-30 21:20 47.46478 8.54575 1398 ft 15 kts 77°
2026-04-30 21:20 47.46421 8.54664 1403 ft 12 kts 154°
2026-04-30 21:20 47.46352 8.54712 1404 ft 10 kts 155°
2026-04-30 21:21 47.46310 8.54773 1402 ft 8 kts 97°
2026-04-30 21:21 47.46307 8.54848 1405 ft 8 kts 97°
2026-04-30 21:21 47.46283 8.55121 1397 ft 16 kts 96°
2026-04-30 21:22 47.46278 8.55247 1397 ft 9 kts 66°
2026-04-30 21:22 47.46337 8.55262 1397 ft 0 kts
2026-04-30 21:32 47.46338 8.55262 1397 ft 0 kts
2026-04-30 21:32 47.46340 8.55262 1404 ft 0 kts
2026-04-30 21:39 47.46318 8.55260 1400 ft 4 kts 357°
2026-04-30 21:39 47.46292 8.55266 1402 ft 4 kts 336°
2026-04-30 21:39 47.46272 8.55288 1402 ft 4 kts 283°
2026-04-30 21:40 47.46272 8.55275 1402 ft 4 kts 275°
2026-04-30 21:40 47.46275 8.55236 1400 ft 4 kts 276°
2026-04-30 21:40 47.46278 8.55196 1397 ft 4 kts 276°
2026-04-30 21:40 47.46281 8.55156 1407 ft 4 kts 276°
2026-04-30 21:41 47.46284 8.55117 1402 ft 4 kts 276°
2026-04-30 21:41 47.46286 8.55077 1397 ft 4 kts 276°
2026-04-30 21:41 47.46289 8.55037 1397 ft 4 kts 276°
2026-04-30 21:41 47.46285 8.55001 1397 ft 4 kts 249°
2026-04-30 21:42 47.46270 8.54969 1405 ft 4 kts 228°
2026-04-30 21:42 47.46248 8.54946 1399 ft 4 kts 205°
2026-04-30 21:42 47.46223 8.54946 1397 ft 4 kts 165°
2026-04-30 21:42 47.46199 8.54963 1399 ft 4 kts 154°
2026-04-30 21:43 47.46175 8.54979 1397 ft 4 kts 154°
2026-04-30 21:43 47.46150 8.54996 1399 ft 4 kts 154°
2026-04-30 21:43 47.46126 8.55013 1404 ft 4 kts 154°
2026-04-30 21:43 47.46101 8.55030 1397 ft 4 kts 154°
2026-04-30 21:44 47.46077 8.55046 1397 ft 4 kts 154°
2026-04-30 21:44 47.46052 8.55063 1402 ft 4 kts 154°
2026-04-30 21:44 47.46027 8.55080 1398 ft 4 kts 154°
2026-04-30 21:44 47.46006 8.55095 1397 ft 1 kts 154°
2026-04-30 21:45 47.45984 8.55110 1402 ft 4 kts 154°
2026-04-30 21:45 47.45959 8.55127 1399 ft 4 kts 154°
2026-04-30 21:45 47.45935 8.55144 1397 ft 4 kts 154°
2026-04-30 21:45 47.45910 8.55161 1401 ft 4 kts 153°
2026-04-30 21:46 47.45886 8.55177 1402 ft 4 kts 153°
2026-04-30 21:46 47.45861 8.55194 1399 ft 4 kts 153°
2026-04-30 21:46 47.45840 8.55209 1401 ft 2 kts 153°
2026-04-30 21:46 47.45818 8.55226 1404 ft 4 kts 151°
2026-04-30 21:47 47.45794 8.55245 1398 ft 4 kts 153°
2026-04-30 21:47 47.45770 8.55262 1402 ft 4 kts 155°
2026-04-30 21:47 47.45745 8.55278 1404 ft 4 kts 157°
2026-04-30 21:47 47.45720 8.55293 1397 ft 4 kts 160°
2026-04-30 21:48 47.45700 8.55303 1403 ft 4 kts 160°
2026-04-30 21:48 47.45675 8.55317 1397 ft 4 kts 159°
2026-04-30 21:48 47.45650 8.55331 1401 ft 4 kts 158°
2026-04-30 21:48 47.45625 8.55346 1402 ft 4 kts 158°
2026-04-30 21:49 47.45600 8.55361 1404 ft 4 kts 157°
2026-04-30 21:49 47.45575 8.55377 1405 ft 4 kts 156°
2026-04-30 21:49 47.45556 8.55391 1403 ft 4 kts 154°
2026-04-30 21:49 47.45546 8.55398 1400 ft 4 kts 154°
2026-04-30 21:50 47.45521 8.55416 1401 ft 4 kts 154°
2026-04-30 21:50 47.45497 8.55433 1403 ft 4 kts 154°
2026-04-30 21:50 47.45472 8.55450 1400 ft 4 kts 155°
2026-04-30 21:50 47.45448 8.55466 1401 ft 4 kts 156°
2026-04-30 21:51 47.45423 8.55482 1402 ft 4 kts 157°
2026-04-30 21:51 47.45398 8.55497 1404 ft 4 kts 158°
2026-04-30 21:51 47.45378 8.55508 1399 ft 4 kts 160°
2026-04-30 21:51 47.45353 8.55521 1397 ft 4 kts 161°
2026-04-30 21:52 47.45327 8.55534 1402 ft 4 kts 160°
2026-04-30 21:52 47.45302 8.55547 1399 ft 4 kts 160°
2026-04-30 21:52 47.45276 8.55561 1397 ft 4 kts 159°
2026-04-30 21:52 47.45251 8.55576 1402 ft 4 kts 159°
2026-04-30 21:53 47.45226 8.55590 1406 ft 4 kts 158°
2026-04-30 21:53 47.45201 8.55605 1404 ft 4 kts 158°
2026-04-30 21:53 47.45176 8.55620 1398 ft 4 kts 157°
2026-04-30 21:53 47.45151 8.55636 1397 ft 4 kts 156°
2026-04-30 21:54 47.45126 8.55652 1399 ft 4 kts 156°
2026-04-30 21:54 47.45102 8.55669 1398 ft 4 kts 155°
2026-04-30 21:54 47.45085 8.55680 1405 ft 4 kts 155°
2026-04-30 21:54 47.45053 8.55702 1400 ft 4 kts 154°
2026-04-30 21:55 47.45029 8.55720 1398 ft 4 kts 153°
2026-04-30 21:55 47.45006 8.55737 1402 ft 2 kts 152°
2026-04-30 21:55 47.44984 8.55753 1400 ft 4 kts 150°
2026-04-30 21:55 47.44965 8.55781 1400 ft 4 kts 124°
2026-04-30 21:56 47.44959 8.55806 1399 ft 4 kts 108°
2026-04-30 21:56 47.44961 8.55837 1401 ft 4 kts 55°
2026-04-30 21:56 47.44984 8.55850 1400 ft 4 kts 12°
2026-04-30 21:56 47.45011 8.55855 1397 ft 4 kts
2026-04-30 21:57 47.45035 8.55858 1401 ft 0 kts
2026-04-30 21:58 47.45038 8.55859 1401 ft 0 kts
2026-04-30 21:58 47.45044 8.55859 1397 ft 0 kts